Time,TemperatureF,DewpointF,PressureIn,WindDirection,WindDirectionDegrees,WindSpeedMPH,WindSpeedGustMPH,Humidity,HourlyPrecipIn,Conditions,Clouds,dailyrainin,SoftwareType,DateUTC
2013-04-21 00:01:00,48.6,33.6,30.14,ESE,113,5.1,6.9,56,0.00,,,0.00,WUHU216HW,2013-04-21 05:01:00,
2013-04-21 00:06:00,48.6,33.1,30.14,SE,135,6.9,6.9,55,0.00,,,0.00,WUHU216HW,2013-04-21 05:06:00,
2013-04-21 00:11:00,48.6,33.1,30.14,ESE,113,4.7,6.9,55,0.00,,,0.00,WUHU216HW,2013-04-21 05:11:00,
2013-04-21 00:16:00,48.4,33.0,30.14,ESE,113,5.4,5.6,55,0.00,,,0.00,WUHU216HW,2013-04-21 05:16:00,
2013-04-21 00:21:00,48.2,32.8,30.15,East,90,5.6,5.6,55,0.00,,,0.00,WUHU216HW,2013-04-21 05:21:00,
2013-04-21 00:26:00,48.1,32.6,30.15,ESE,113,4.9,5.6,55,0.00,,,0.00,WUHU216HW,2013-04-21 05:26:00,
2013-04-21 00:31:00,47.9,32.9,30.14,ESE,113,2.5,5.6,56,0.00,,,0.00,WUHU216HW,2013-04-21 05:31:00,
2013-04-21 00:36:00,47.9,32.9,30.15,East,90,5.1,5.1,56,0.00,,,0.00,WUHU216HW,2013-04-21 05:36:00,
2013-04-21 00:41:00,47.7,32.7,30.15,ESE,113,5.4,5.4,56,0.00,,,0.00,WUHU216HW,2013-04-21 05:41:00,
2013-04-21 00:46:00,47.7,33.2,30.15,ESE,113,4.9,6.7,57,0.00,,,0.00,WUHU216HW,2013-04-21 05:46:00,
2013-04-21 00:51:00,47.5,33.0,30.15,ESE,113,4.0,6.7,57,0.00,,,0.00,WUHU216HW,2013-04-21 05:51:00,
2013-04-21 00:56:00,47.3,32.9,30.15,SE,135,2.7,6.3,57,0.00,,,0.00,WUHU216HW,2013-04-21 05:56:00,
2013-04-21 01:01:00,47.2,33.1,30.15,East,90,4.7,4.7,58,0.00,,,0.00,WUHU216HW,2013-04-21 06:01:00,
2013-04-21 01:06:00,47.2,33.1,30.15,SE,135,4.0,4.7,58,0.00,,,0.00,WUHU216HW,2013-04-21 06:06:00,
2013-04-21 01:11:00,47.0,32.5,30.14,SE,135,5.4,5.4,57,0.00,,,0.00,WUHU216HW,2013-04-21 06:11:00,
2013-04-21 01:16:00,46.8,32.8,30.15,ESE,113,1.3,5.4,58,0.00,,,0.00,WUHU216HW,2013-04-21 06:16:00,
2013-04-21 01:21:00,46.8,32.8,30.14,East,90,0.9,5.4,58,0.00,,,0.00,WUHU216HW,2013-04-21 06:21:00,
2013-04-21 01:27:00,46.6,32.6,30.14,SE,135,4.7,4.7,58,0.00,,,0.00,WUHU216HW,2013-04-21 06:27:00,
2013-04-21 01:32:00,46.6,32.6,30.15,SE,135,3.4,4.7,58,0.00,,,0.00,WUHU216HW,2013-04-21 06:32:00,
2013-04-21 01:37:00,46.4,32.4,30.15,ENE,68,5.1,5.1,58,0.00,,,0.00,WUHU216HW,2013-04-21 06:37:00,
2013-04-21 01:42:00,46.4,32.4,30.15,ESE,113,4.7,5.1,58,0.00,,,0.00,WUHU216HW,2013-04-21 06:42:00,
2013-04-21 01:47:00,46.4,32.4,30.14,ESE,113,2.2,4.7,58,0.00,,,0.00,WUHU216HW,2013-04-21 06:47:00,
2013-04-21 01:52:00,46.1,32.5,30.14,ESE,113,4.3,4.7,59,0.00,,,0.00,WUHU216HW,2013-04-21 06:52:00,
2013-04-21 01:57:00,46.1,32.5,30.14,SE,135,2.5,4.7,59,0.00,,,0.00,WUHU216HW,2013-04-21 06:57:00,
2013-04-21 02:02:00,45.9,32.4,30.14,East,90,3.4,4.3,59,0.00,,,0.00,WUHU216HW,2013-04-21 07:02:00,
2013-04-21 02:07:00,45.9,32.4,30.13,ESE,113,1.1,3.4,59,0.00,,,0.00,WUHU216HW,2013-04-21 07:07:00,
2013-04-21 02:12:00,45.7,32.2,30.13,SE,135,2.5,3.4,59,0.00,,,0.00,WUHU216HW,2013-04-21 07:12:00,
2013-04-21 02:17:00,45.7,32.2,30.13,East,90,4.5,4.5,59,0.00,,,0.00,WUHU216HW,2013-04-21 07:17:00,
2013-04-21 02:22:00,45.7,32.7,30.13,SE,135,2.9,4.5,60,0.00,,,0.00,WUHU216HW,2013-04-21 07:22:00,
2013-04-21 02:27:00,45.5,32.5,30.13,SE,135,4.7,4.7,60,0.00,,,0.00,WUHU216HW,2013-04-21 07:27:00,
2013-04-21 02:32:00,45.4,32.3,30.13,SE,135,4.0,4.7,60,0.00,,,0.00,WUHU216HW,2013-04-21 07:32:00,
2013-04-21 02:37:00,45.4,32.3,30.13,ESE,113,3.6,4.7,60,0.00,,,0.00,WUHU216HW,2013-04-21 07:37:00,
2013-04-21 02:42:00,45.4,32.3,30.13,ESE,113,1.1,4.3,60,0.00,,,0.00,WUHU216HW,2013-04-21 07:42:00,
2013-04-21 02:47:00,45.0,32.1,30.13,East,90,4.5,4.5,60,0.00,,,0.00,WUHU216HW,2013-04-21 07:47:00,
2013-04-21 02:52:00,45.0,32.4,30.13,SE,135,1.8,4.5,61,0.00,,,0.00,WUHU216HW,2013-04-21 07:52:00,
2013-04-21 02:57:00,44.8,32.2,30.13,ESE,113,3.1,3.1,61,0.00,,,0.00,WUHU216HW,2013-04-21 07:57:00,
2013-04-21 03:02:00,44.8,32.2,30.13,ESE,113,1.3,3.1,61,0.00,,,0.00,WUHU216HW,2013-04-21 08:02:00,
2013-04-21 03:07:00,44.8,32.2,30.13,East,90,2.5,3.6,61,0.00,,,0.00,WUHU216HW,2013-04-21 08:07:00,
2013-04-21 03:12:00,44.6,32.0,30.13,SE,135,2.9,3.6,61,0.00,,,0.00,WUHU216HW,2013-04-21 08:12:00,
2013-04-21 03:17:00,44.6,32.0,30.13,ESE,113,2.5,2.9,61,0.00,,,0.00,WUHU216HW,2013-04-21 08:17:00,
2013-04-21 03:22:00,44.6,32.0,30.13,East,90,3.1,3.1,61,0.00,,,0.00,WUHU216HW,2013-04-21 08:22:00,
2013-04-21 03:27:00,44.6,32.0,30.13,SE,135,2.7,3.1,61,0.00,,,0.00,WUHU216HW,2013-04-21 08:27:00,
2013-04-21 03:32:00,44.6,32.0,30.13,SE,135,2.7,2.7,61,0.00,,,0.00,WUHU216HW,2013-04-21 08:32:00,
2013-04-21 03:56:00,44.8,32.6,30.13,SE,135,1.8,1.8,62,0.00,,,0.00,WUHU216HW,2013-04-21 08:56:00,
2013-04-21 04:01:00,45.0,32.8,30.13,SE,135,3.4,3.4,62,0.00,,,0.00,WUHU216HW,2013-04-21 09:01:00,
2013-04-21 04:06:00,45.2,33.0,30.13,South,180,4.3,4.7,62,0.00,,,0.00,WUHU216HW,2013-04-21 09:06:00,
2013-04-21 04:11:00,45.2,33.0,30.14,ESE,113,2.5,4.7,62,0.00,,,0.00,WUHU216HW,2013-04-21 09:11:00,
2013-04-21 04:16:00,45.4,33.1,30.13,SE,135,3.1,4.3,62,0.00,,,0.00,WUHU216HW,2013-04-21 09:16:00,
2013-04-21 04:21:00,45.4,33.5,30.14,SE,135,4.5,4.5,63,0.00,,,0.00,WUHU216HW,2013-04-21 09:21:00,
2013-04-21 04:26:00,45.5,33.7,30.14,SE,135,4.0,4.5,63,0.00,,,0.00,WUHU216HW,2013-04-21 09:26:00,
2013-04-21 04:31:00,45.5,33.7,30.14,SE,135,2.5,4.0,63,0.00,,,0.00,WUHU216HW,2013-04-21 09:31:00,
2013-04-21 04:36:00,45.5,33.7,30.14,SE,135,1.6,4.0,63,0.00,,,0.00,WUHU216HW,2013-04-21 09:36:00,
2013-04-21 04:41:00,45.5,33.7,30.14,SE,135,3.4,3.4,63,0.00,,,0.00,WUHU216HW,2013-04-21 09:41:00,
2013-04-21 04:46:00,45.7,33.9,30.14,SE,135,2.5,3.4,63,0.00,,,0.00,WUHU216HW,2013-04-21 09:46:00,
2013-04-21 04:51:00,45.7,33.9,30.14,SE,135,3.4,3.4,63,0.00,,,0.00,WUHU216HW,2013-04-21 09:51:00,
2013-04-21 04:56:00,45.7,33.9,30.14,SE,135,3.4,3.4,63,0.00,,,0.00,WUHU216HW,2013-04-21 09:56:00,
2013-04-21 05:01:00,45.7,33.9,30.14,SE,135,1.3,3.4,63,0.00,,,0.00,WUHU216HW,2013-04-21 10:01:00,
2013-04-21 05:06:00,45.7,33.9,30.15,SE,135,1.3,2.9,63,0.00,,,0.00,WUHU216HW,2013-04-21 10:06:00,
2013-04-21 05:11:00,45.7,34.2,30.15,SE,135,1.1,2.9,64,0.00,,,0.00,WUHU216HW,2013-04-21 10:11:00,
2013-04-21 05:16:00,45.7,34.2,30.15,SSE,158,3.4,3.4,64,0.00,,,0.00,WUHU216HW,2013-04-21 10:16:00,
2013-04-21 05:21:00,45.7,34.2,30.15,SE,135,2.7,3.4,64,0.00,,,0.00,WUHU216HW,2013-04-21 10:21:00,
2013-04-21 05:26:00,45.7,34.6,30.15,SE,135,1.3,3.4,65,0.00,,,0.00,WUHU216HW,2013-04-21 10:26:00,
2013-04-21 05:31:00,45.7,34.6,30.15,SE,135,0.9,1.3,65,0.00,,,0.00,WUHU216HW,2013-04-21 10:31:00,
2013-04-21 05:36:00,45.7,34.6,30.15,SE,135,1.6,1.6,65,0.00,,,0.00,WUHU216HW,2013-04-21 10:36:00,
2013-04-21 05:41:00,45.5,34.8,30.15,SSE,158,2.2,2.2,66,0.00,,,0.00,WUHU216HW,2013-04-21 10:41:00,
2013-04-21 05:46:00,45.7,35.0,30.15,SSE,158,0.4,2.2,66,0.00,,,0.00,WUHU216HW,2013-04-21 10:46:00,
2013-04-21 05:51:00,45.5,34.8,30.15,SE,135,1.6,1.8,66,0.00,,,0.00,WUHU216HW,2013-04-21 10:51:00,
2013-04-21 05:56:00,45.5,35.6,30.15,SSE,158,2.0,2.0,68,0.00,,,0.00,WUHU216HW,2013-04-21 10:56:00,
2013-04-21 06:01:00,45.7,35.4,30.15,SE,135,2.7,2.7,67,0.00,,,0.00,WUHU216HW,2013-04-21 11:01:00,
2013-04-21 06:06:00,45.5,35.6,30.15,SSE,158,2.7,2.7,68,0.00,,,0.00,WUHU216HW,2013-04-21 11:06:00,
2013-04-21 06:11:00,45.5,35.6,30.15,SE,135,1.6,2.7,68,0.00,,,0.00,WUHU216HW,2013-04-21 11:11:00,
2013-04-21 06:16:00,45.5,35.6,30.16,SE,135,3.1,3.1,68,0.00,,,0.00,WUHU216HW,2013-04-21 11:16:00,
2013-04-21 06:21:00,45.5,35.6,30.16,SE,135,2.5,3.1,68,0.00,,,0.00,WUHU216HW,2013-04-21 11:21:00,
2013-04-21 06:26:00,45.4,35.4,30.16,SE,135,1.8,3.1,68,0.00,,,0.00,WUHU216HW,2013-04-21 11:26:00,
2013-04-21 06:31:00,45.4,35.4,30.16,SE,135,1.1,1.8,68,0.00,,,0.00,WUHU216HW,2013-04-21 11:31:00,
2013-04-21 06:36:00,45.0,35.1,30.17,SE,135,0.9,1.1,68,0.00,,,0.00,WUHU216HW,2013-04-21 11:36:00,
2013-04-21 06:41:00,45.0,35.5,30.17,SSE,158,2.0,2.0,69,0.00,,,0.00,WUHU216HW,2013-04-21 11:41:00,
2013-04-21 06:46:00,45.2,36.0,30.17,SE,135,2.2,2.2,70,0.00,,,0.00,WUHU216HW,2013-04-21 11:46:00,
2013-04-21 06:51:00,45.2,36.0,30.17,SSE,158,2.9,2.9,70,0.00,,,0.00,WUHU216HW,2013-04-21 11:51:00,
2013-04-21 06:56:00,45.5,36.7,30.17,SSE,158,1.6,2.9,71,0.00,,,0.00,WUHU216HW,2013-04-21 11:56:00,
2013-04-21 07:01:00,45.7,36.9,30.17,South,180,1.3,2.7,71,0.00,,,0.00,WUHU216HW,2013-04-21 12:01:00,
2013-04-21 07:06:00,45.9,37.1,30.17,South,180,3.4,3.4,71,0.00,,,0.00,WUHU216HW,2013-04-21 12:06:00,
2013-04-21 07:11:00,46.4,37.6,30.17,SSE,158,3.1,3.4,71,0.00,,,0.00,WUHU216HW,2013-04-21 12:11:00,
2013-04-21 07:16:00,46.6,37.8,30.17,SSE,158,1.3,3.4,71,0.00,,,0.00,WUHU216HW,2013-04-21 12:16:00,
2013-04-21 07:21:00,46.8,37.9,30.17,SSE,158,1.8,3.1,71,0.00,,,0.00,WUHU216HW,2013-04-21 12:21:00,
2013-04-21 07:26:00,47.2,38.3,30.18,SE,135,3.1,3.1,71,0.00,,,0.00,WUHU216HW,2013-04-21 12:26:00,
2013-04-21 07:31:00,47.9,38.9,30.18,SE,135,4.3,4.3,71,0.00,,,0.00,WUHU216HW,2013-04-21 12:31:00,
2013-04-21 07:36:00,48.2,39.3,30.18,SSE,158,5.1,5.1,71,0.00,,,0.00,WUHU216HW,2013-04-21 12:36:00,
2013-04-21 07:41:00,48.6,39.6,30.18,South,180,2.5,5.1,71,0.00,,,0.00,WUHU216HW,2013-04-21 12:41:00,
2013-04-21 07:46:00,49.7,40.3,30.18,South,180,5.1,5.1,70,0.00,,,0.00,WUHU216HW,2013-04-21 12:46:00,
2013-04-21 07:51:00,50.0,40.3,30.18,South,180,5.6,5.6,69,0.00,,,0.00,WUHU216HW,2013-04-21 12:51:00,
2013-04-21 07:56:00,50.4,40.7,30.18,South,180,4.0,5.6,69,0.00,,,0.00,WUHU216HW,2013-04-21 12:56:00,
2013-04-21 08:01:00,50.8,41.1,30.18,SSE,158,4.3,5.6,69,0.00,,,0.00,WUHU216HW,2013-04-21 13:01:00,
2013-04-21 08:06:00,51.1,41.0,30.18,South,180,6.9,6.9,68,0.00,,,0.00,WUHU216HW,2013-04-21 13:06:00,
2013-04-21 08:11:00,51.5,41.3,30.18,SSE,158,6.9,6.9,68,0.00,,,0.00,WUHU216HW,2013-04-21 13:11:00,
2013-04-21 08:16:00,51.8,41.7,30.18,SSE,158,7.8,8.1,68,0.00,,,0.00,WUHU216HW,2013-04-21 13:16:00,
2013-04-21 08:21:00,51.8,41.7,30.18,SSE,158,7.8,8.1,68,0.00,,,0.00,WUHU216HW,2013-04-21 13:21:00,
2013-04-21 08:26:00,51.8,41.7,30.18,SSE,158,7.8,7.8,68,0.00,,,0.00,WUHU216HW,2013-04-21 13:26:00,
2013-04-21 08:47:00,54.5,43.0,30.19,South,180,5.6,5.6,65,0.00,,,0.00,WUHU216HW,2013-04-21 13:47:00,
2013-04-21 08:52:00,54.7,42.8,30.19,SSE,158,12.1,12.1,64,0.00,,,0.00,WUHU216HW,2013-04-21 13:52:00,
2013-04-21 08:57:00,54.7,43.1,30.19,South,180,7.8,12.1,65,0.00,,,0.00,WUHU216HW,2013-04-21 13:57:00,
2013-04-21 09:02:00,54.9,43.3,30.19,South,180,5.6,12.1,65,0.00,,,0.00,WUHU216HW,2013-04-21 14:02:00,
2013-04-21 09:07:00,55.4,43.4,30.19,SE,135,8.9,8.9,64,0.00,,,0.00,WUHU216HW,2013-04-21 14:07:00,
2013-04-21 09:12:00,55.8,43.7,30.19,South,180,6.3,8.9,64,0.00,,,0.00,WUHU216HW,2013-04-21 14:12:00,
2013-04-21 09:17:00,56.5,44.5,30.19,SSE,158,5.4,8.9,64,0.00,,,0.00,WUHU216HW,2013-04-21 14:17:00,
2013-04-21 09:22:00,57.6,44.6,30.19,SSE,158,6.5,8.3,62,0.00,,,0.00,WUHU216HW,2013-04-21 14:22:00,
2013-04-21 09:27:00,58.0,44.7,30.19,SSE,158,6.7,8.3,61,0.00,,,0.00,WUHU216HW,2013-04-21 14:27:00,
2013-04-21 09:32:00,57.8,44.0,30.19,SSE,158,8.9,8.9,60,0.00,,,0.00,WUHU216HW,2013-04-21 14:32:00,
2013-04-21 09:37:00,57.6,43.9,30.19,SE,135,4.9,8.9,60,0.00,,,0.00,WUHU216HW,2013-04-21 14:37:00,
2013-04-21 09:42:00,58.0,44.2,30.19,South,180,8.3,8.9,60,0.00,,,0.00,WUHU216HW,2013-04-21 14:42:00,
2013-04-21 09:47:00,58.3,44.1,30.19,South,180,8.5,8.5,59,0.00,,,0.00,WUHU216HW,2013-04-21 14:47:00,
2013-04-21 09:52:00,59.0,44.7,30.19,SSW,203,8.7,8.7,59,0.00,,,0.00,WUHU216HW,2013-04-21 14:52:00,
2013-04-21 09:57:00,59.2,43.9,30.19,SSW,203,12.3,12.3,57,0.00,,,0.00,WUHU216HW,2013-04-21 14:57:00,
2013-04-21 10:02:00,58.9,43.7,30.19,South,180,8.7,12.3,57,0.00,,,0.00,WUHU216HW,2013-04-21 15:02:00,
2013-04-21 10:07:00,59.6,44.3,30.19,South,180,8.1,12.3,57,0.00,,,0.00,WUHU216HW,2013-04-21 15:07:00,
2013-04-21 10:12:00,60.1,44.8,30.19,SSW,203,10.1,10.1,57,0.00,,,0.00,WUHU216HW,2013-04-21 15:12:00,
2013-04-21 10:17:00,60.3,44.6,30.20,SE,135,6.7,10.1,56,0.00,,,0.00,WUHU216HW,2013-04-21 15:17:00,
2013-04-21 10:22:00,60.1,43.8,30.20,South,180,9.4,12.8,55,0.00,,,0.00,WUHU216HW,2013-04-21 15:22:00,
2013-04-21 10:27:00,59.8,44.0,30.20,SSW,203,12.5,12.8,56,0.00,,,0.00,WUHU216HW,2013-04-21 15:27:00,
2013-04-21 10:32:00,59.8,44.0,30.20,SSE,158,10.5,12.5,56,0.00,,,0.00,WUHU216HW,2013-04-21 15:32:00,
2013-04-21 10:37:00,60.1,44.4,30.20,South,180,11.6,12.5,56,0.00,,,0.00,WUHU216HW,2013-04-21 15:37:00,
2013-04-21 10:42:00,60.1,43.8,30.19,South,180,9.2,11.6,55,0.00,,,0.00,WUHU216HW,2013-04-21 15:42:00,
2013-04-21 10:47:00,60.5,45.2,30.19,SSE,158,7.4,11.6,57,0.00,,,0.00,WUHU216HW,2013-04-21 15:47:00,
2013-04-21 10:52:00,61.6,44.7,30.19,SSE,158,8.3,8.3,54,0.00,,,0.00,WUHU216HW,2013-04-21 15:52:00,
2013-04-21 10:57:00,61.9,44.6,30.19,SSE,158,12.3,12.3,53,0.00,,,0.00,WUHU216HW,2013-04-21 15:57:00,
2013-04-21 11:02:00,61.9,44.6,30.20,SSE,158,13.4,13.4,53,0.00,,,0.00,WUHU216HW,2013-04-21 16:02:00,
2013-04-21 11:07:00,62.1,45.2,30.20,SW,225,7.4,13.4,54,0.00,,,0.00,WUHU216HW,2013-04-21 16:07:00,
2013-04-21 11:12:00,62.1,44.2,30.19,SSW,203,10.1,13.4,52,0.00,,,0.00,WUHU216HW,2013-04-21 16:12:00,
2013-04-21 11:17:00,62.3,44.9,30.19,South,180,8.1,14.1,53,0.00,,,0.00,WUHU216HW,2013-04-21 16:17:00,
2013-04-21 11:22:00,62.3,44.4,30.19,SSE,158,12.1,14.1,52,0.00,,,0.00,WUHU216HW,2013-04-21 16:22:00,
2013-04-21 11:27:00,62.1,43.7,30.19,SSW,203,8.9,12.1,51,0.00,,,0.00,WUHU216HW,2013-04-21 16:27:00,
2013-04-21 11:32:00,62.3,44.4,30.19,South,180,15.2,15.2,52,0.00,,,0.00,WUHU216HW,2013-04-21 16:32:00,
2013-04-21 11:37:00,62.3,43.9,30.19,South,180,10.1,15.2,51,0.00,,,0.00,WUHU216HW,2013-04-21 16:37:00,
2013-04-21 11:42:00,62.3,43.9,30.18,SSE,158,14.1,14.1,51,0.00,,,0.00,WUHU216HW,2013-04-21 16:42:00,
2013-04-21 11:47:00,62.5,44.1,30.18,SSW,203,14.3,14.3,51,0.00,,,0.00,WUHU216HW,2013-04-21 16:47:00,
2013-04-21 11:52:00,62.8,44.9,30.18,SSE,158,12.3,14.3,52,0.00,,,0.00,WUHU216HW,2013-04-21 16:52:00,
2013-04-21 11:57:00,63.4,44.4,30.18,South,180,9.8,12.3,50,0.00,,,0.00,WUHU216HW,2013-04-21 16:57:00,
2013-04-21 12:02:00,63.9,44.3,30.18,SSW,203,10.1,12.3,49,0.00,,,0.00,WUHU216HW,2013-04-21 17:02:00,
2013-04-21 12:07:00,64.1,43.9,30.17,SSE,158,11.4,11.4,48,0.00,,,0.00,WUHU216HW,2013-04-21 17:07:00,
2013-04-21 12:12:00,64.1,43.9,30.17,SSE,158,11.4,11.4,48,0.00,,,0.00,WUHU216HW,2013-04-21 17:12:00,
2013-04-21 12:17:00,64.1,43.9,30.17,SSE,158,11.4,11.4,48,0.00,,,0.00,WUHU216HW,2013-04-21 17:17:00,
2013-04-21 12:38:00,65.0,43.0,30.16,South,180,9.4,9.4,45,0.00,,,0.00,WUHU216HW,2013-04-21 17:38:00,
2013-04-21 12:43:00,65.0,43.0,30.16,SSW,203,11.6,11.6,45,0.00,,,0.00,WUHU216HW,2013-04-21 17:43:00,
2013-04-21 12:48:00,64.8,43.4,30.16,SSE,158,9.8,11.6,46,0.00,,,0.00,WUHU216HW,2013-04-21 17:48:00,
2013-04-21 12:53:00,64.8,43.4,30.16,SSE,158,10.3,10.5,46,0.00,,,0.00,WUHU216HW,2013-04-21 17:53:00,
2013-04-21 12:58:00,65.2,42.6,30.16,SSE,158,10.3,10.3,44,0.00,,,0.00,WUHU216HW,2013-04-21 17:58:00,
2013-04-21 13:03:00,65.2,42.0,30.15,South,180,11.4,15.9,43,0.00,,,0.00,WUHU216HW,2013-04-21 18:03:00,
2013-04-21 13:08:00,64.8,40.5,30.15,South,180,12.1,15.9,41,0.00,,,0.00,WUHU216HW,2013-04-21 18:08:00,
2013-04-21 13:13:00,65.0,41.2,30.15,SSE,158,15.2,15.2,42,0.00,,,0.00,WUHU216HW,2013-04-21 18:13:00,
2013-04-21 13:18:00,65.5,41.1,30.14,South,180,15.0,15.2,41,0.00,,,0.00,WUHU216HW,2013-04-21 18:18:00,
2013-04-21 13:23:00,65.9,41.5,30.14,SSE,158,12.8,15.0,41,0.00,,,0.00,WUHU216HW,2013-04-21 18:23:00,
2013-04-21 13:28:00,65.9,42.1,30.14,South,180,8.9,15.2,42,0.00,,,0.00,WUHU216HW,2013-04-21 18:28:00,
2013-04-21 13:33:00,66.6,43.3,30.14,South,180,15.7,15.7,43,0.00,,,0.00,WUHU216HW,2013-04-21 18:33:00,
2013-04-21 13:38:00,66.2,42.4,30.13,SE,135,8.7,15.7,42,0.00,,,0.00,WUHU216HW,2013-04-21 18:38:00,
2013-04-21 13:43:00,66.1,41.7,30.13,SSE,158,10.5,15.7,41,0.00,,,0.00,WUHU216HW,2013-04-21 18:43:00,
2013-04-21 13:48:00,66.8,42.9,30.13,South,180,14.3,14.3,42,0.00,,,0.00,WUHU216HW,2013-04-21 18:48:00,
2013-04-21 13:53:00,67.3,42.8,30.13,South,180,9.8,14.3,41,0.00,,,0.00,WUHU216HW,2013-04-21 18:53:00,
2013-04-21 13:58:00,66.6,42.8,30.13,SSW,203,9.2,14.3,42,0.00,,,0.00,WUHU216HW,2013-04-21 18:58:00,
2013-04-21 14:03:00,66.2,43.6,30.13,SSE,158,14.8,14.8,44,0.00,,,0.00,WUHU216HW,2013-04-21 19:03:00,
2013-04-21 14:08:00,67.1,43.2,30.13,South,180,7.6,14.8,42,0.00,,,0.00,WUHU216HW,2013-04-21 19:08:00,
2013-04-21 14:13:00,68.4,43.7,30.12,South,180,16.3,16.3,41,0.00,,,0.00,WUHU216HW,2013-04-21 19:13:00,
2013-04-21 14:18:00,68.4,43.7,30.12,South,180,14.3,16.3,41,0.00,,,0.00,WUHU216HW,2013-04-21 19:18:00,
2013-04-21 14:23:00,68.0,42.1,30.12,South,180,13.4,16.3,39,0.00,,,0.00,WUHU216HW,2013-04-21 19:23:00,
2013-04-21 14:28:00,67.1,42.0,30.12,South,180,10.1,14.3,40,0.00,,,0.00,WUHU216HW,2013-04-21 19:28:00,
2013-04-21 14:33:00,66.1,42.2,30.12,South,180,15.4,15.4,42,0.00,,,0.00,WUHU216HW,2013-04-21 19:33:00,
2013-04-21 14:38:00,67.3,42.8,30.12,SSW,203,6.3,15.4,41,0.00,,,0.00,WUHU216HW,2013-04-21 19:38:00,
2013-04-21 14:43:00,68.0,42.8,30.11,South,180,14.5,15.4,40,0.00,,,0.00,WUHU216HW,2013-04-21 19:43:00,
2013-04-21 14:48:00,67.3,41.5,30.11,SSW,203,12.3,14.5,39,0.00,,,0.00,WUHU216HW,2013-04-21 19:48:00,
2013-04-21 14:53:00,67.7,43.1,30.11,South,180,8.3,13.2,41,0.00,,,0.00,WUHU216HW,2013-04-21 19:53:00,
2013-04-21 14:58:00,68.0,42.8,30.11,SSE,158,10.5,12.3,40,0.00,,,0.00,WUHU216HW,2013-04-21 19:58:00,
2013-04-21 15:03:00,68.9,42.2,30.11,SSW,203,8.7,10.5,38,0.00,,,0.00,WUHU216HW,2013-04-21 20:03:00,
2013-04-21 15:08:00,67.9,41.9,30.10,SSW,203,8.3,10.5,39,0.00,,,0.00,WUHU216HW,2013-04-21 20:08:00,
2013-04-21 15:13:00,67.3,42.2,30.10,SSW,203,15.2,15.2,40,0.00,,,0.00,WUHU216HW,2013-04-21 20:13:00,
2013-04-21 15:18:00,67.0,42.5,30.10,SSE,158,10.1,15.2,41,0.00,,,0.00,WUHU216HW,2013-04-21 20:18:00,
2013-04-21 15:23:00,67.3,42.2,30.10,SSE,158,9.4,14.1,40,0.00,,,0.00,WUHU216HW,2013-04-21 20:23:00,
2013-04-21 15:28:00,67.7,42.5,30.10,South,180,6.7,10.1,40,0.00,,,0.00,WUHU216HW,2013-04-21 20:28:00,
2013-04-21 15:33:00,67.9,42.7,30.09,South,180,7.8,9.4,40,0.00,,,0.00,WUHU216HW,2013-04-21 20:33:00,
2013-04-21 15:38:00,67.5,43.6,30.09,South,180,10.5,10.5,42,0.00,,,0.00,WUHU216HW,2013-04-21 20:38:00,
2013-04-21 15:43:00,68.6,45.7,30.09,SSW,203,8.1,10.5,44,0.00,,,0.00,WUHU216HW,2013-04-21 20:43:00,
2013-04-21 15:48:00,69.5,44.7,30.09,South,180,5.1,10.5,41,0.00,,,0.00,WUHU216HW,2013-04-21 20:48:00,
2013-04-21 15:53:00,67.9,42.7,30.09,SSE,158,12.8,12.8,40,0.00,,,0.00,WUHU216HW,2013-04-21 20:53:00,
2013-04-21 15:58:00,68.4,43.2,30.09,SSW,203,10.5,12.8,40,0.00,,,0.00,WUHU216HW,2013-04-21 20:58:00,
2013-04-21 16:03:00,67.9,43.3,30.08,SSW,203,6.3,12.8,41,0.00,,,0.00,WUHU216HW,2013-04-21 21:03:00,
2013-04-21 16:08:00,68.2,43.6,30.08,SSE,158,7.4,13.9,41,0.00,,,0.00,WUHU216HW,2013-04-21 21:08:00,
2013-04-21 16:13:00,68.0,43.5,30.09,South,180,10.5,13.9,41,0.00,,,0.00,WUHU216HW,2013-04-21 21:13:00,
2013-04-21 16:18:00,66.8,42.3,30.08,SSW,203,7.8,10.5,41,0.00,,,0.00,WUHU216HW,2013-04-21 21:18:00,
2013-04-21 16:23:00,67.7,44.3,30.08,South,180,6.5,10.5,43,0.00,,,0.00,WUHU216HW,2013-04-21 21:23:00,
2013-04-21 16:28:00,68.9,44.3,30.08,South,180,8.3,9.2,41,0.00,,,0.00,WUHU216HW,2013-04-21 21:28:00,
2013-04-21 16:33:00,69.1,44.4,30.08,SSE,158,8.1,8.3,41,0.00,,,0.00,WUHU216HW,2013-04-21 21:33:00,
2013-04-21 16:38:00,67.3,41.5,30.08,SSW,203,11.6,11.6,39,0.00,,,0.00,WUHU216HW,2013-04-21 21:38:00,
2013-04-21 16:43:00,66.8,41.7,30.08,SSW,203,7.8,11.6,40,0.00,,,0.00,WUHU216HW,2013-04-21 21:43:00,
2013-04-21 16:48:00,66.8,41.7,30.08,South,180,8.1,11.6,40,0.00,,,0.00,WUHU216HW,2013-04-21 21:48:00,
2013-04-21 16:53:00,68.0,43.5,30.07,SW,225,8.9,8.9,41,0.00,,,0.00,WUHU216HW,2013-04-21 21:53:00,
2013-04-21 16:58:00,67.5,42.4,30.07,South,180,8.9,8.9,40,0.00,,,0.00,WUHU216HW,2013-04-21 21:58:00,
2013-04-21 17:03:00,67.3,42.2,30.07,SSW,203,7.6,8.9,40,0.00,,,0.00,WUHU216HW,2013-04-21 22:03:00,
2013-04-21 17:08:00,66.8,41.0,30.07,SSW,203,10.3,10.3,39,0.00,,,0.00,WUHU216HW,2013-04-21 22:08:00,
2013-04-21 17:13:00,66.6,41.6,30.07,SSE,158,9.2,10.3,40,0.00,,,0.00,WUHU216HW,2013-04-21 22:13:00,
2013-04-21 17:18:00,66.6,41.6,30.07,South,180,6.7,10.3,40,0.00,,,0.00,WUHU216HW,2013-04-21 22:18:00,
2013-04-21 17:23:00,66.6,40.9,30.07,SSW,203,8.9,9.2,39,0.00,,,0.00,WUHU216HW,2013-04-21 22:23:00,
2013-04-21 17:28:00,66.6,41.6,30.07,SSW,203,6.3,8.9,40,0.00,,,0.00,WUHU216HW,2013-04-21 22:28:00,
2013-04-21 17:33:00,66.8,41.0,30.07,South,180,7.2,8.9,39,0.00,,,0.00,WUHU216HW,2013-04-21 22:33:00,
2013-04-21 17:38:00,66.6,41.6,30.07,SSE,158,9.2,9.2,40,0.00,,,0.00,WUHU216HW,2013-04-21 22:38:00,
2013-04-21 17:43:00,66.4,41.9,30.07,SSE,158,5.6,9.2,41,0.00,,,0.00,WUHU216HW,2013-04-21 22:43:00,
2013-04-21 17:48:00,66.2,41.9,30.07,South,180,7.8,9.2,41,0.00,,,0.00,WUHU216HW,2013-04-21 22:48:00,
2013-04-21 17:53:00,66.6,42.1,30.07,South,180,7.4,9.4,41,0.00,,,0.00,WUHU216HW,2013-04-21 22:53:00,
2013-04-21 17:58:00,67.0,43.0,30.07,South,180,5.1,9.4,42,0.00,,,0.00,WUHU216HW,2013-04-21 22:58:00,
2013-04-21 18:03:00,68.9,43.7,30.07,South,180,6.9,7.4,40,0.00,,,0.00,WUHU216HW,2013-04-21 23:03:00,
2013-04-21 18:08:00,70.2,44.0,30.07,SSE,158,12.1,12.1,39,0.00,,,0.00,WUHU216HW,2013-04-21 23:08:00,
2013-04-21 18:13:00,70.7,43.8,30.07,SSW,203,7.6,12.1,38,0.00,,,0.00,WUHU216HW,2013-04-21 23:13:00,
2013-04-21 18:18:00,70.4,42.8,30.07,SSE,158,9.8,12.1,37,0.00,,,0.00,WUHU216HW,2013-04-21 23:18:00,
2013-04-21 18:23:00,70.2,43.3,30.07,SSE,158,8.5,9.8,38,0.00,,,0.00,WUHU216HW,2013-04-21 23:23:00,
2013-04-21 18:28:00,70.0,42.4,30.07,South,180,6.7,9.2,37,0.00,,,0.00,WUHU216HW,2013-04-21 23:28:00,
2013-04-21 18:33:00,68.9,40.0,30.07,South,180,6.5,8.5,35,0.00,,,0.00,WUHU216HW,2013-04-21 23:33:00,
2013-04-21 18:38:00,67.3,40.0,30.07,South,180,6.3,8.5,37,0.00,,,0.00,WUHU216HW,2013-04-21 23:38:00,
2013-04-21 18:43:00,66.4,38.5,30.07,South,180,6.5,6.5,36,0.00,,,0.00,WUHU216HW,2013-04-21 23:43:00,
2013-04-21 18:48:00,65.7,38.6,30.07,South,180,9.2,9.2,37,0.00,,,0.00,WUHU216HW,2013-04-21 23:48:00,
2013-04-21 18:53:00,66.2,39.1,30.07,South,180,8.9,9.2,37,0.00,,,0.00,WUHU216HW,2013-04-21 23:53:00,
2013-04-21 18:58:00,66.1,38.9,30.07,South,180,8.9,9.2,37,0.00,,,0.00,WUHU216HW,2013-04-21 23:58:00,
2013-04-21 19:03:00,65.7,39.3,30.07,SSW,203,6.3,8.9,38,0.00,,,0.00,WUHU216HW,2013-04-22 00:03:00,
2013-04-21 19:08:00,65.2,38.8,30.07,South,180,6.9,8.5,38,0.00,,,0.00,WUHU216HW,2013-04-22 00:08:00,
2013-04-21 19:13:00,65.0,38.6,30.07,SSW,203,5.4,7.2,38,0.00,,,0.00,WUHU216HW,2013-04-22 00:13:00,
2013-04-21 19:18:00,64.6,39.1,30.07,South,180,3.1,6.9,39,0.00,,,0.00,WUHU216HW,2013-04-22 00:18:00,
2013-04-21 19:23:00,64.4,39.6,30.08,South,180,3.1,6.9,40,0.00,,,0.00,WUHU216HW,2013-04-22 00:23:00,
2013-04-21 19:28:00,64.1,39.9,30.08,South,180,6.3,6.9,41,0.00,,,0.00,WUHU216HW,2013-04-22 00:28:00,
2013-04-21 19:33:00,64.1,39.2,30.08,South,180,6.0,6.3,40,0.00,,,0.00,WUHU216HW,2013-04-22 00:33:00,
2013-04-21 19:38:00,63.7,39.5,30.08,South,180,3.6,6.3,41,0.00,,,0.00,WUHU216HW,2013-04-22 00:38:00,
2013-04-21 19:43:00,63.2,39.6,30.08,South,180,4.7,4.7,42,0.00,,,0.00,WUHU216HW,2013-04-22 00:43:00,
2013-04-21 19:48:00,62.6,40.3,30.08,South,180,2.5,4.7,44,0.00,,,0.00,WUHU216HW,2013-04-22 00:48:00,
2013-04-21 19:53:00,62.1,39.8,30.08,South,180,3.6,4.7,44,0.00,,,0.00,WUHU216HW,2013-04-22 00:53:00,
2013-04-21 19:58:00,61.7,40.1,30.08,South,180,2.0,3.6,45,0.00,,,0.00,WUHU216HW,2013-04-22 00:58:00,
2013-04-21 20:03:00,61.0,40.0,30.08,South,180,4.7,4.7,46,0.00,,,0.00,WUHU216HW,2013-04-22 01:03:00,
2013-04-21 20:08:00,61.0,40.6,30.08,South,180,3.6,4.7,47,0.00,,,0.00,WUHU216HW,2013-04-22 01:08:00,
2013-04-21 20:13:00,60.8,40.4,30.08,SSE,158,1.6,4.7,47,0.00,,,0.00,WUHU216HW,2013-04-22 01:13:00,
2013-04-21 20:18:00,60.7,40.2,30.08,SSE,158,2.0,3.6,47,0.00,,,0.00,WUHU216HW,2013-04-22 01:18:00,
2013-04-21 20:23:00,60.3,40.5,30.09,SSE,158,0.9,2.7,48,0.13,,,0.13,WUHU216HW,2013-04-22 01:23:00,
2013-04-21 20:28:00,60.1,40.3,30.08,South,180,3.1,3.1,48,0.13,,,0.13,WUHU216HW,2013-04-22 01:28:00,
2013-04-21 20:33:00,59.8,40.6,30.08,SSE,158,3.1,3.1,49,0.13,,,0.13,WUHU216HW,2013-04-22 01:33:00,
2013-04-21 20:38:00,59.4,40.2,30.08,South,180,2.0,3.1,49,0.13,,,0.13,WUHU216HW,2013-04-22 01:38:00,
2013-04-21 20:43:00,58.9,40.3,30.08,SSE,158,1.1,3.1,50,0.13,,,0.13,WUHU216HW,2013-04-22 01:43:00,
2013-04-21 20:48:00,58.7,40.1,30.08,South,180,1.3,2.0,50,0.13,,,0.13,WUHU216HW,2013-04-22 01:48:00,
2013-04-21 20:53:00,58.7,40.7,30.09,SSE,158,3.4,3.4,51,0.13,,,0.13,WUHU216HW,2013-04-22 01:53:00,
2013-04-21 20:59:00,58.9,40.8,30.09,SSE,158,2.2,3.4,51,0.13,,,0.13,WUHU216HW,2013-04-22 01:59:00,
2013-04-21 21:03:00,58.9,40.8,30.09,SSE,158,2.5,3.4,51,0.13,,,0.13,WUHU216HW,2013-04-22 02:03:00,
2013-04-21 21:08:00,58.7,41.1,30.09,SSW,203,1.8,2.5,52,0.13,,,0.13,WUHU216HW,2013-04-22 02:08:00,
2013-04-21 21:13:00,58.7,41.1,30.09,SSE,158,2.9,2.9,52,0.13,,,0.13,WUHU216HW,2013-04-22 02:13:00,
2013-04-21 21:18:00,58.7,41.1,30.09,South,180,2.5,2.9,52,0.13,,,0.13,WUHU216HW,2013-04-22 02:18:00,
2013-04-21 21:24:00,58.5,41.4,30.10,SSE,158,2.5,3.1,53,0.00,,,0.13,WUHU216HW,2013-04-22 02:24:00,
2013-04-21 21:29:00,58.3,41.2,30.10,South,180,2.5,3.8,53,0.00,,,0.13,WUHU216HW,2013-04-22 02:29:00,
2013-04-21 21:33:00,58.3,41.2,30.10,SSW,203,4.0,4.0,53,0.00,,,0.13,WUHU216HW,2013-04-22 02:33:00,
2013-04-21 21:39:00,58.1,41.1,30.10,SSE,158,4.7,4.7,53,0.00,,,0.13,WUHU216HW,2013-04-22 02:39:00,
2013-04-21 21:44:00,58.1,41.1,30.10,South,180,4.3,4.7,53,0.00,,,0.13,WUHU216HW,2013-04-22 02:44:00,
2013-04-21 21:49:00,57.8,41.2,30.10,South,180,3.4,5.4,54,0.00,,,0.13,WUHU216HW,2013-04-22 02:49:00,
2013-04-21 21:54:00,57.6,41.0,30.10,South,180,4.7,5.4,54,0.00,,,0.13,WUHU216HW,2013-04-22 02:54:00,
2013-04-21 21:59:00,57.6,41.0,30.10,SE,135,4.3,4.7,54,0.00,,,0.13,WUHU216HW,2013-04-22 02:59:00,
2013-04-21 22:04:00,57.6,41.0,30.11,South,180,3.1,4.7,54,0.00,,,0.13,WUHU216HW,2013-04-22 03:04:00,
2013-04-21 22:09:00,57.6,41.0,30.11,South,180,4.7,4.7,54,0.00,,,0.13,WUHU216HW,2013-04-22 03:09:00,
2013-04-21 22:14:00,57.6,41.0,30.11,SSE,158,4.3,4.7,54,0.00,,,0.13,WUHU216HW,2013-04-22 03:14:00,
2013-04-21 22:19:00,57.6,41.0,30.11,South,180,2.2,4.3,54,0.00,,,0.13,WUHU216HW,2013-04-22 03:19:00,
2013-04-21 22:24:00,57.4,41.0,30.11,South,180,2.5,4.3,54,0.00,,,0.13,WUHU216HW,2013-04-22 03:24:00,
2013-04-21 22:29:00,57.2,40.8,30.11,South,180,3.4,3.4,54,0.00,,,0.13,WUHU216HW,2013-04-22 03:29:00,
2013-04-21 22:34:00,57.2,40.8,30.11,South,180,3.4,3.4,54,0.00,,,0.13,WUHU216HW,2013-04-22 03:34:00,
2013-04-21 22:39:00,57.2,40.8,30.11,South,180,3.4,3.4,54,0.00,,,0.13,WUHU216HW,2013-04-22 03:39:00,
2013-04-21 23:00:00,56.7,40.2,30.11,SSE,158,1.3,1.3,54,0.00,,,0.13,WUHU216HW,2013-04-22 04:00:00,
2013-04-21 23:01:00,56.7,40.2,30.11,SSE,158,1.3,1.3,54,0.00,,,0.13,WUHU216HW,2013-04-22 04:01:00,
2013-04-21 23:02:00,56.5,40.1,30.11,SSE,158,2.5,2.5,54,0.00,,,0.13,WUHU216HW,2013-04-22 04:02:00,
2013-04-21 23:07:00,56.5,40.5,30.11,South,180,3.4,3.4,55,0.00,,,0.13,WUHU216HW,2013-04-22 04:07:00,
2013-04-21 23:12:00,56.5,40.1,30.11,South,180,2.7,3.4,54,0.00,,,0.13,WUHU216HW,2013-04-22 04:12:00,
2013-04-21 23:17:00,56.7,40.2,30.11,South,180,2.9,3.4,54,0.00,,,0.13,WUHU216HW,2013-04-22 04:17:00,
2013-04-21 23:22:00,56.7,40.2,30.11,South,180,3.4,3.4,54,0.00,,,0.13,WUHU216HW,2013-04-22 04:22:00,
2013-04-21 23:27:00,56.7,40.2,30.11,SSE,158,3.8,3.8,54,0.00,,,0.13,WUHU216HW,2013-04-22 04:27:00,
2013-04-21 23:32:00,56.7,40.2,30.11,SSW,203,4.0,4.0,54,0.00,,,0.13,WUHU216HW,2013-04-22 04:32:00,
2013-04-21 23:37:00,56.9,40.4,30.11,South,180,6.0,6.0,54,0.00,,,0.13,WUHU216HW,2013-04-22 04:37:00,
2013-04-21 23:42:00,56.9,40.4,30.11,SSE,158,3.6,6.0,54,0.00,,,0.13,WUHU216HW,2013-04-22 04:42:00,
2013-04-21 23:47:00,56.7,40.2,30.11,South,180,2.9,6.0,54,0.00,,,0.13,WUHU216HW,2013-04-22 04:47:00,
2013-04-21 23:52:00,56.7,40.2,30.11,South,180,2.9,6.9,54,0.00,,,0.13,WUHU216HW,2013-04-22 04:52:00,
2013-04-21 23:57:00,56.5,40.1,30.10,South,180,3.6,6.9,54,0.00,,,0.13,WUHU216HW,2013-04-22 04:57:00,